Regional Weather Roundup
Issued by NWS

Home | Current Version | Previous Version | Graphics & Text | Print | Product List | Glossary On
Versions: 1 2 3 4 5 6 7 8 9 10 11 12 13 14 15 16 17 18 19 20 21 22 23 24 25 26 27 28 29 30 31 32 33 34 35 36 37 38 39 40 41 42 43 44 45 46 47 48 49 50
000
ASUS43 KLMK 192210
RWRKY
KENTUCKY REGIONAL WEATHER ROUNDUP
NATIONAL WEATHER SERVICE LOUISVILLE KY
600 PM EDT THU OCT 19 2017

NOTE "FAIR" INDICATES FEW OR NO CLOUDS BELOW 12,000 FEET
WITH NO SIGNIFICANT WEATHER AND/OR OBSTRUCTIONS TO VISIBILITY.

KYZ001>023-026-027-061>063-070>075-192300-
WESTERN AND SOUTH CENTRAL KENTUCKY

CITY           SKY/WX    TMP DP  RH WIND       PRES   REMARKS
PADUCAH        SUNNY     76  49  38 VRB5      30.18S
HENDERSON      SUNNY     76  52  43 S7        30.19S
OWENSBORO      SUNNY     74  52  46 S8        30.20S
HOPKINSVILLE   SUNNY     73  48  41 SW7       30.20F
BOWLING GREEN  SUNNY     74  49  41 S7        30.22F
GLASGOW        SUNNY     72  49  44 SW5       30.22F
$$

KYZ024-025-028>034-038-045-046-053-192300-
NORTH CENTRAL KENTUCKY

CITY           SKY/WX    TMP DP  RH WIND       PRES   REMARKS
LOUISVILLE/SDF MOSUNNY   73  50  44 SW9       30.20S
LOUISVILLE/LOU SUNNY     72  53  51 S6        30.21S
FORT KNOX      SUNNY     72  50  45 SW5       30.20S
$$

KYZ035>037-039>044-047>052-055>060-089>105-192300-
NORTHEAST KENTUCKY

CITY           SKY/WX    TMP DP  RH WIND       PRES   REMARKS
LEXINGTON      CLEAR     69  50  50 S5        30.23S
COVINGTON      PTCLDY    70  53  54 SW7       30.20S
FRANKFORT      CLEAR     71  48  43 SW7       30.21S
$$

KYZ054-064>069-076>088-106>120-192300-
SOUTHEAST KENTUCKY

CITY           SKY/WX    TMP DP  RH WIND       PRES   REMARKS
JACKSON        CLEAR     68  47  46 CALM      30.25S
LONDON         CLEAR     69  43  38 SW3       30.25S
SOMERSET       CLEAR     68  45  42 W3        30.26R
MIDDLESBORO    CLEAR     68  47  46 S3        30.26R
MONTICELLO     CLEAR     70  48  45 W13       30.26S
$$





USA.gov is the U.S. government's official web portal to all federal, state and local government web resources and services.